Hourly Weather Bolshie Verhi

Today, 18 June, Friday

Time Temperature Precipitation Wind Pressure Humidity
00:00 +14°C° 0 mm 3 mps 747 mmHg 83%
01:00 +13°C° 0 mm 3 mps 747 mmHg 82%
02:00 +13°C° 0 mm 3 mps 747 mmHg 82%
03:00 +13°C° 0 mm 3 mps 748 mmHg 79%
04:00 +13°C° 0 mm 3 mps 748 mmHg 79%
05:00 +14°C° 0 mm 3 mps 748 mmHg 79%
06:00 +14°C° 0 mm 3 mps 749 mmHg 79%
07:00 +17°C° 0 mm 4 mps 749 mmHg 74%
08:00 +18°C° 0 mm 4 mps 749 mmHg 68%
09:00 +19°C° 0 mm 5 mps 749 mmHg 63%
10:00 +20°C° 0 mm 5 mps 750 mmHg 61%
11:00 +20°C° 0 mm 5 mps 750 mmHg 59%
12:00 +21°C° 0 mm 5 mps 750 mmHg 56%
13:00 +21°C° 0 mm 5 mps 750 mmHg 57%
14:00 +21°C° 0 mm 4 mps 750 mmHg 57%
15:00 +21°C° 0 mm 4 mps 750 mmHg 57%
16:00 +21°C° 0 mm 4 mps 750 mmHg 61%
17:00 +20°C° 0 mm 4 mps 750 mmHg 65%
18:00 +20°C° 0 mm 3 mps 750 mmHg 69%
19:00 +18°C° 0 mm 3 mps 750 mmHg 74%
20:00 +17°C° 0 mm 3 mps 750 mmHg 78%
21:00 +14°C° 0 mm 3 mps 750 mmHg 82%
22:00 +15°C° 0 mm 2 mps 750 mmHg 82%
23:00 +14°C° 0 mm 2 mps 750 mmHg 83%

Tomorrow, 19 June, Saturday

Time Temperature Precipitation Wind Pressure Humidity
00:00 +14°C° 0 mm 2 mps 751 mmHg 83%
01:00 +13°C° 0 mm 1 mps 751 mmHg 83%
02:00 +13°C° 0 mm 1 mps 751 mmHg 82%
03:00 +12°C° 0 mm 1 mps 751 mmHg 82%
04:00 +13°C° 0 mm 1 mps 751 mmHg 80%
05:00 +14°C° 0 mm 1 mps 751 mmHg 78%
06:00 +14°C° 0 mm 0 mps 751 mmHg 76%
07:00 +16°C° 0 mm 0 mps 751 mmHg 72%
08:00 +17°C° 0 mm 0 mps 751 mmHg 68%
09:00 +21°C° 0 mm 1 mps 751 mmHg 63%
10:00 +22°C° 0 mm 1 mps 751 mmHg 60%
11:00 +23°C° 0 mm 1 mps 751 mmHg 57%
12:00 +24°C° 0 mm 1 mps 751 mmHg 53%
13:00 +24°C° 0 mm 1 mps 750 mmHg 53%
14:00 +24°C° 0 mm 1 mps 750 mmHg 52%
15:00 +25°C° 0 mm 1 mps 750 mmHg 52%
16:00 +25°C° 0 mm 1 mps 750 mmHg 55%
17:00 +25°C° 0 mm 1 mps 749 mmHg 59%
18:00 +24°C° 0 mm 1 mps 749 mmHg 63%
19:00 +23°C° 0 mm 1 mps 749 mmHg 66%
20:00 +21°C° 0 mm 1 mps 749 mmHg 70%
21:00 +17°C° 0 mm 0 mps 749 mmHg 73%
22:00 +18°C° 0 mm 1 mps 749 mmHg 75%
23:00 +18°C° 0 mm 1 mps 749 mmHg 76%

Day after tomorrow, 20 June, Sunday

Time Temperature Precipitation Wind Pressure Humidity
00:00 +16°C° 0 mm 1 mps 749 mmHg 77%
01:00 +16°C° 0 mm 1 mps 749 mmHg 79%
02:00 +15°C° 0 mm 1 mps 749 mmHg 81%
03:00 +15°C° 0 mm 1 mps 749 mmHg 82%
04:00 +16°C° 0 mm 1 mps 749 mmHg 81%
05:00 +18°C° 0 mm 1 mps 749 mmHg 79%
06:00 +19°C° 0 mm 1 mps 749 mmHg 77%
07:00 +21°C° 0 mm 1 mps 749 mmHg 74%
08:00 +22°C° 0 mm 1 mps 749 mmHg 70%
09:00 +24°C° 0 mm 1 mps 749 mmHg 66%
10:00 +25°C° 0 mm 1 mps 749 mmHg 62%
11:00 +24°C° 0 mm 0 mps 749 mmHg 58%
12:00 +25°C° 0 mm 0 mps 749 mmHg 54%
13:00 +26°C° 0 mm 0 mps 749 mmHg 53%
14:00 +26°C° 0 mm 0 mps 748 mmHg 51%
15:00 +26°C° 0 mm 0 mps 748 mmHg 50%
16:00 +28°C° 0 mm 1 mps 748 mmHg 54%
17:00 +28°C° 0 mm 1 mps 748 mmHg 59%
18:00 +28°C° 0 mm 1 mps 748 mmHg 63%
19:00 +26°C° 0 mm 1 mps 747 mmHg 67%
20:00 +24°C° 0 mm 1 mps 747 mmHg 71%
21:00 +22°C° 0 mm 1 mps 747 mmHg 75%
22:00 +21°C° 0 mm 1 mps 747 mmHg 77%
23:00 +21°C° 0 mm 1 mps 747 mmHg 79%

21 June, Monday

Time Temperature Precipitation Wind Pressure Humidity
00:00 +20°C° 0 mm 1 mps 747 mmHg 81%
01:00 +20°C° 0 mm 1 mps 747 mmHg 83%
02:00 +19°C° 0 mm 1 mps 747 mmHg 84%
03:00 +19°C° 0 mm 1 mps 747 mmHg 86%
04:00 +20°C° 0 mm 1 mps 748 mmHg 85%
05:00 +21°C° 0 mm 1 mps 748 mmHg 84%
06:00 +22°C° 0 mm 1 mps 748 mmHg 83%
07:00 +23°C° 0 mm 1 mps 748 mmHg 78%
08:00 +25°C° 0 mm 2 mps 748 mmHg 74%
09:00 +26°C° 0 mm 2 mps 748 mmHg 69%
10:00 +27°C° 0 mm 2 mps 748 mmHg 66%
11:00 +27°C° 0 mm 2 mps 748 mmHg 63%
12:00 +28°C° 0 mm 2 mps 748 mmHg 60%
13:00 +28°C° 0 mm 1 mps 747 mmHg 58%
14:00 +29°C° 0 mm 1 mps 747 mmHg 56%
15:00 +29°C° 0 mm 1 mps 747 mmHg 54%
16:00 +29°C° 0 mm 1 mps 747 mmHg 57%
17:00 +29°C° 0 mm 1 mps 747 mmHg 60%
18:00 +29°C° 0 mm 1 mps 746 mmHg 64%
19:00 +27°C° 0 mm 1 mps 746 mmHg 68%
20:00 +25°C° 0 mm 1 mps 746 mmHg 72%
21:00 +23°C° 0 mm 1 mps 746 mmHg 76%
22:00 +23°C° 0 mm 1 mps 746 mmHg 78%
23:00 +22°C° 0 mm 1 mps 746 mmHg 81%

22 June, Tuesday

Time Temperature Precipitation Wind Pressure Humidity
00:00 +22°C° 0 mm 1 mps 746 mmHg 83%
01:00 +21°C° 0 mm 1 mps 746 mmHg 85%
02:00 +21°C° 0 mm 1 mps 746 mmHg 86%
03:00 +21°C° 0 mm 1 mps 746 mmHg 88%
04:00 +22°C° 0 mm 1 mps 747 mmHg 85%
05:00 +22°C° 0 mm 1 mps 747 mmHg 83%
06:00 +23°C° 0 mm 1 mps 747 mmHg 81%
07:00 +25°C° 0 mm 1 mps 747 mmHg 77%
08:00 +26°C° 0 mm 1 mps 747 mmHg 72%
09:00 +27°C° 0 mm 1 mps 747 mmHg 67%
10:00 +28°C° 0 mm 1 mps 747 mmHg 63%
11:00 +29°C° 0 mm 1 mps 747 mmHg 59%
12:00 +30°C° 0 mm 1 mps 747 mmHg 55%
13:00 +30°C° 0 mm 1 mps 747 mmHg 52%
14:00 +31°C° 0 mm 1 mps 746 mmHg 50%
15:00 +31°C° 0 mm 1 mps 746 mmHg 48%
16:00 +31°C° 0 mm 1 mps 746 mmHg 51%
17:00 +29°C° 0 mm 0 mps 746 mmHg 55%
18:00 +29°C° 0 mm 0 mps 746 mmHg 59%
19:00 +29°C° 0 mm 1 mps 746 mmHg 63%
20:00 +27°C° 0 mm 1 mps 746 mmHg 66%
21:00 +25°C° 0 mm 2 mps 746 mmHg 70%
22:00 +24°C° 0 mm 2 mps 746 mmHg 72%
23:00 +24°C° 0 mm 2 mps 746 mmHg 74%

23 June, Wednesday

Time Temperature Precipitation Wind Pressure Humidity
00:00 +23°C° 0 mm 1 mps 746 mmHg 76%
01:00 +23°C° 0 mm 1 mps 746 mmHg 78%
02:00 +22°C° 0 mm 1 mps 746 mmHg 79%
03:00 +22°C° 0 mm 1 mps 746 mmHg 81%
04:00 +23°C° 0 mm 1 mps 746 mmHg 80%
05:00 +23°C° 0 mm 1 mps 746 mmHg 79%
06:00 +24°C° 0 mm 1 mps 746 mmHg 78%
07:00 +26°C° 0 mm 1 mps 747 mmHg 73%
08:00 +27°C° 0 mm 1 mps 747 mmHg 68%
09:00 +28°C° 0 mm 1 mps 747 mmHg 63%
10:00 +29°C° 0 mm 1 mps 747 mmHg 59%
11:00 +30°C° 0 mm 1 mps 746 mmHg 56%
12:00 +30°C° 0 mm 1 mps 746 mmHg 53%
13:00 +31°C° 0 mm 1 mps 746 mmHg 51%
14:00 +31°C° 0 mm 1 mps 746 mmHg 49%
15:00 +31°C° 0 mm 1 mps 746 mmHg 47%
16:00 +31°C° 0 mm 2 mps 746 mmHg 52%
17:00 +30°C° 0 mm 2 mps 746 mmHg 57%
18:00 +30°C° 0 mm 2 mps 745 mmHg 63%
19:00 +28°C° 0 mm 2 mps 745 mmHg 65%
20:00 +27°C° 0 mm 2 mps 745 mmHg 66%
21:00 +25°C° 0 mm 2 mps 745 mmHg 68%
22:00 +24°C° 0 mm 2 mps 745 mmHg 70%
23:00 +24°C° 0 mm 2 mps 745 mmHg 72%
Show more